ES0THZ-13 Weather Reports


time (UTC)temp
C
wind
direction
speed
KPH
gust
KPH
rain 1hr
cm
rain 24hr
cm
rain mn
cm
humidity
%
barometer
mb
20260508105246 17 90 0.0 32.2 0.00 0.00 0.00 43 1020.5
20260508103506 16 45 25.7 29.0 0.00 0.00 0.00 43 1019.3
20260508101531 16 0 29.0 45.1 0.00 0.00 0.00 43 1019.6
20260508095656 17 0 0.0 27.4 0.00 0.00 0.00 44 1019.2
20260508094006 16 337 0.0 43.5 0.00 0.00 0.00 44 1020.0
20260508092131 16 45 0.0 25.7 0.00 0.00 0.00 45 1019.5
20260508090411 16 22 0.0 30.6 0.00 0.00 0.00 47 1019.9
20260508084701 15 45 22.5 32.2 0.00 0.00 0.00 47 1018.9
20260508082921 14 337 0.0 33.8 0.00 0.00 0.00 49 1019.4
20260508081236 15 0 0.0 8.0 0.00 0.00 0.00 50 1019.8
20260508075516 13 67 29.0 32.2 0.00 0.00 0.00 51 1020.0
20260508073706 13 0 0.0 9.7 0.00 0.00 0.00 53 1019.7
20260508071916 13 90 0.0 30.6 0.00 0.00 0.00 53 1019.4
20260508070106 13 0 0.0 29.0 0.00 0.00 0.00 54 1019.6
20260508062741 13 0 0.0 37.0 0.00 0.00 0.00 55 1018.8
20260508055053 12 337 0.0 20.9 0.00 0.00 0.00 58 1019.1
20260508053326 12 0 22.5 35.4 0.00 0.00 0.00 58 1019.0
20260508051421 11 337 0.0 22.5 0.00 0.00 0.00 59 1018.5
20260508045631 11 202 0.0 29.0 0.00 0.00 0.00 59 1018.8
20260508043851 10 45 19.3 27.4 0.00 0.00 0.00 60 1018.4
20260508042046 10 45 0.0 0.0 0.00 0.00 0.00 60 1018.2
20260508040251 8 315 0.0 0.0 0.00 0.00 0.00 61 1017.7
20260508034446 7 315 0.0 0.0 0.00 0.00 0.00 62 1017.6
20260508032621 6 337 0.0 0.0 0.00 0.00 0.00 62 1017.1
20260508030716 5 337 0.0 0.0 0.00 0.00 0.00 63 1016.5
20260508024921 4 315 0.0 0.0 0.00 0.00 0.00 64 1016.5
20260508023121 3 315 0.0 0.0 0.00 0.00 0.00 64 1017.9
20260508021316 2 315 0.0 0.0 0.00 0.00 0.00 64 1017.3
20260508015446 3 337 0.0 0.0 0.00 0.00 0.00 62 1016.5
20260508013626 3 337 0.0 0.0 0.00 0.00 0.00 62 1015.9
20260508011736 4 315 0.0 4.8 0.00 0.00 0.00 61 1016.6
20260508005831 4 0 0.0 0.0 0.00 0.00 0.00 60 1016.2
20260508004011 4 0 0.0 0.0 0.00 0.00 0.00 60 1015.7
20260508002059 4 315 0.0 0.0 0.00 0.00 0.00 59 1015.1
20260508000351 4 0 0.0 0.0 0.00 0.00 0.00 58 1016.5
20260507234531 4 315 0.0 11.3 0.00 0.00 0.00 57 1014.5
20260507232701 4 270 0.0 0.0 0.00 0.00 0.00 57 1015.2
20260507230831 5 337 0.0 0.0 0.00 0.00 0.00 56 1014.0
20260507224851 5 337 0.0 0.0 0.00 0.00 0.00 56 1014.7
20260507223101 5 315 0.0 0.0 0.00 0.00 0.00 57 1014.8
20260507221306 5 292 0.0 0.0 0.00 0.00 0.00 57 1013.8
20260507215551 5 337 0.0 0.0 0.00 0.00 0.00 57 1014.6
20260507213726 5 315 0.0 0.0 0.00 0.00 0.00 57 1013.6
20260507211951 5 315 0.0 0.0 0.00 0.00 0.00 57 1014.0
20260507210146 5 337 0.0 0.0 0.00 0.00 0.00 57 1014.6
20260507204401 5 315 0.0 0.0 0.00 0.00 0.00 57 1012.5
20260507202606 5 315 0.0 0.0 0.00 0.00 0.00 56 1013.1
20260507200806 5 315 0.0 0.0 0.00 0.00 0.00 56 1013.9
20260507195021 6 315 0.0 0.0 0.00 0.00 0.00 55 1012.5
20260507193201 6 315 0.0 0.0 0.00 0.00 0.00 54 1012.1
20260507185726 7 292 0.0 0.0 0.00 0.00 0.00 52 1012.0
20260507183916 8 337 0.0 0.0 0.00 0.00 0.00 51 1012.2
20260507182126 8 270 0.0 0.0 0.00 0.00 0.00 50 1012.3
20260507180446 10 247 0.0 20.9 0.00 0.00 0.00 48 1011.8
20260507174741 10 270 19.3 19.3 0.00 0.00 0.00 46 1011.2
20260507173041 11 0 0.0 0.0 0.00 0.00 0.00 46 1011.8
20260507171256 12 0 0.0 17.7 0.00 0.00 0.00 45 1011.9
20260507165433 12 337 0.0 20.9 0.00 0.00 0.00 45 1011.4
20260507163651 13 315 0.0 24.1 0.00 0.00 0.00 46 1010.9
20260507161906 13 315 0.0 32.2 0.00 0.00 0.00 46 1010.1
20260507160116 15 270 0.0 12.9 0.00 0.00 0.00 46 1010.9
20260507154331 16 0 0.0 0.0 0.00 0.00 0.00 46 1010.8
20260507152606 16 315 0.0 12.9 0.00 0.00 0.00 46 1009.9
20260507150841 17 180 0.0 29.0 0.00 0.00 0.00 47 1010.7
20260507144846 16 157 19.3 32.2 0.00 0.00 0.00 47 1011.1
20260507142956 18 270 0.0 0.0 0.00 0.00 0.00 46 1010.2
20260507141201 17 225 16.1 25.7 0.00 0.00 0.00 47 1009.2
20260507135346 17 180 14.5 32.2 0.00 0.00 0.00 48 1009.7
20260507133536 17 225 9.7 11.3 0.00 0.00 0.00 49 1010.3
20260507131621 17 135 0.0 24.1 0.00 0.00 0.00 50 1009.8
20260507130011 16 135 0.0 35.4 0.00 0.00 0.00 51 1009.9
20260507124251 17 112 0.0 14.5 0.00 0.00 0.00 51 1010.7
20260507122421 16 135 25.7 27.4 0.00 0.00 0.00 52 1010.5
20260507120626 16 157 24.1 29.0 0.00 0.00 0.00 52 1009.9
20260507114846 16 112 0.0 22.5 0.00 0.00 0.00 52 1009.1
20260507113041 16 112 0.0 24.1 0.00 0.00 0.00 52 1008.9
20260507111156 16 157 22.5 22.5 0.00 0.00 0.00 52 1009.8